GFSFLT2_sfc_30mbdewp_159.txt.gz
Dewpoint
49 50 53 54 54 52 51 51 52 50 49 49 49 49 50 50 49 50 51 50 51 51 52 53 55 57 58 60 64 66 67 65
47 46 46 50 51 50 50 50 48 48 47 47 47 46 46 47 46 48 48 48 48 48 48 48 49 50 52 54 56 64 66 65
46 45 45 45 46 46 47 47 46 44 43 45 43 44 43 42 45 45 45 45 44 45 45 45 46 45 48 50 53 60 63 65
44 45 44 43 41 42 42 42 42 42 42 41 41 41 41 40 41 42 41 41 41 41 42 41 40 40 41 44 47 50 55 62
42 43 44 42 41 40 39 39 40 39 39 38 38 37 37 36 37 38 37 36 36 36 38 38 41 41 39 41 42 44 48 54
40 41 40 40 39 38 39 38 37 36 36 36 35 33 34 34 34 34 34 34 34 35 36 37 38 39 39 39 40 41 41 45
39 38 38 38 39 38 38 36 35 34 34 35 34 32 33 33 33 32 33 33 33 34 34 34 35 36 37 38 38 38 40 41
38 37 37 38 38 38 37 35 34 32 32 33 34 32 33 32 32 32 32 32 33 33 33 33 34 34 35 35 36 37 37 39
37 37 37 37 36 35 35 34 32 31 31 33 33 33 32 32 32 32 31 32 32 31 32 32 32 32 32 32 33 34 35 38
35 35 36 36 35 33 32 32 31 30 30 31 32 33 33 31 31 31 32 30 30 30 30 31 31 31 31 31 32 33 33 35
34 36 35 35 34 32 31 31 29 29 29 30 31 32 32 31 31 31 30 29 29 30 30 31 30 31 31 32 32 33 33 33
34 34 35 35 33 32 30 29 29 29 28 29 30 31 31 30 30 31 29 28 29 30 30 30 30 31 31 30 31 32 34 35
33 33 34 33 32 31 30 27 27 27 28 29 30 30 30 29 29 30 29 29 29 29 29 29 29 30 30 30 31 33 36 36
33 32 32 32 30 30 29 28 27 27 27 28 29 30 30 28 29 29 29 28 29 29 29 29 29 31 31 30 28 30 32 31
33 32 31 30 30 29 28 28 26 25 26 26 28 29 30 29 29 28 28 28 28 28 28 30 29 30 31 31 28 27 30 30
33 32 30 29 28 25 22 18 18 25 26 26 27 28 29 28 28 28 27 27 27 27 28 29 28 28 30 32 32 32 30 29
33 31 30 29 27 25 22 22 24 25 25 24 25 27 28 27 27 27 27 26 27 27 27 27 28 28 28 28 29 31 33 32
32 30 29 28 26 25 24 23 22 20 20 21 23 26 26 24 24 26 26 26 26 26 27 27 26 27 27 28 28 29 30 32
31 29 28 28 26 25 24 23 22 20 20 21 20 22 23 21 21 23 24 25 25 26 26 25 25 25 26 27 27 28 32 32
31 29 28 27 25 24 24 23 22 21 21 21 20 22 23 20 20 21 23 24 24 25 25 24 25 25 25 26 27 28 31 32

GFSFLT2_sfc_30mbdewp_165.txt.gz
Dewpoint
59 57 55 56 56 54 53 53 52 52 51 50 49 50 49 48 49 49 49 49 48 48 48 48 48 48 48 49 51 52 57 62
58 56 53 52 52 52 51 50 49 48 47 46 48 45 46 46 43 46 45 45 44 44 45 45 44 45 48 45 43 44 51 60
55 55 54 51 48 48 48 46 44 47 45 43 42 42 40 39 42 41 41 42 40 41 41 42 42 41 46 44 40 35 40 47
53 52 51 46 42 45 43 42 43 43 43 42 41 41 38 36 38 38 38 40 38 38 38 39 37 35 34 36 35 36 38 36
51 51 48 43 42 40 38 39 39 42 43 42 41 39 39 35 35 35 37 35 34 34 34 35 39 39 38 38 38 38 36 35
49 49 47 44 41 39 38 37 38 38 41 40 38 35 38 37 36 34 33 32 34 37 37 39 39 39 39 39 40 40 38 38
45 46 45 44 41 40 39 38 37 38 37 40 38 36 38 36 35 33 32 33 36 36 37 38 38 38 39 39 38 39 39 38
43 43 44 43 42 42 41 39 38 37 37 39 39 36 38 34 33 32 32 36 37 36 37 37 37 38 37 38 38 38 38 39
42 42 43 42 42 40 37 35 35 35 36 38 38 37 37 36 33 33 36 36 36 35 36 37 37 36 36 37 37 37 37 38
40 40 41 41 39 37 35 36 33 33 33 35 37 37 37 34 32 35 39 35 35 36 36 37 36 36 36 35 35 36 37 38
38 39 40 40 39 37 37 36 32 31 31 32 36 35 36 34 33 37 38 34 36 37 37 36 36 35 34 33 35 36 36 36
37 39 40 38 37 35 33 33 31 30 30 32 34 34 34 34 32 36 36 35 36 37 37 36 35 34 33 33 33 35 37 37
37 38 39 37 35 32 32 31 30 29 30 32 32 33 34 33 32 33 35 35 36 36 35 34 33 33 33 32 33 34 35 37
37 38 38 35 33 32 32 29 29 28 29 32 32 32 33 30 33 32 35 35 35 34 34 33 31 33 31 31 30 31 32 31
36 37 37 34 33 33 32 30 29 28 29 27 30 31 31 32 32 33 34 33 32 32 32 31 31 31 31 31 29 28 29 31
36 36 36 34 34 30 29 26 25 26 25 26 28 30 31 30 31 32 32 31 31 31 31 30 30 28 29 29 29 30 29 28
36 35 34 34 32 30 31 26 27 25 24 28 27 30 29 26 27 30 31 30 31 31 30 30 29 28 28 28 28 29 28 31
36 35 33 34 32 32 29 27 24 23 23 25 23 25 25 25 24 27 29 29 30 29 30 29 29 28 29 28 28 28 28 28
37 34 32 33 32 32 30 29 25 25 25 21 22 23 22 23 23 25 26 28 28 29 29 28 27 27 28 28 29 29 29 29
36 34 32 32 32 30 29 28 25 23 21 21 22 22 21 23 23 23 26 26 26 27 26 25 27 28 27 28 29 29 30 30

GFSFLT2_sfc_30mbdewp_171.txt.gz
Dewpoint
61 62 62 61 61 60 60 59 58 56 55 53 52 51 51 49 48 46 47 46 45 45 44 45 47 49 52 51 50 49 48 44
59 59 57 57 58 58 57 55 53 52 53 52 53 51 46 44 45 44 45 45 43 42 43 48 46 46 48 49 49 45 41 41
58 57 55 55 54 55 53 52 51 50 50 51 52 45 45 41 44 44 42 47 44 44 47 45 44 44 44 46 45 42 42 41
56 56 54 53 51 51 50 51 50 48 46 46 45 40 39 41 42 43 44 43 43 44 44 43 43 42 42 43 42 42 42 42
56 55 53 49 47 49 49 48 47 45 45 43 43 42 42 41 41 39 37 43 40 41 41 41 41 41 42 41 41 42 42 42
58 54 51 49 49 49 46 46 45 44 43 44 44 42 41 39 39 38 39 41 39 41 40 41 41 41 42 42 42 41 42 42
55 54 52 49 48 47 45 46 44 43 42 43 43 41 40 39 39 39 39 40 39 40 41 41 41 41 40 40 40 41 41 42
54 51 51 48 47 43 44 44 44 43 42 42 42 41 39 39 40 40 39 40 40 40 40 40 40 40 39 39 39 37 37 39
52 51 49 47 45 43 42 43 42 42 42 41 40 40 39 39 41 39 40 41 40 40 40 40 39 39 38 37 36 36 38 40
51 50 48 46 44 43 42 42 42 41 41 40 39 39 39 40 40 38 40 41 40 39 39 38 37 37 36 36 36 37 36 38
48 48 48 46 44 41 41 40 41 41 40 40 38 38 39 39 39 38 40 40 39 38 37 36 36 35 32 35 36 34 37 34
46 47 47 46 43 41 40 37 39 39 38 38 37 37 38 38 38 38 39 38 37 36 34 34 35 32 32 32 33 36 32 34
45 46 46 43 39 38 37 35 36 36 36 37 37 37 36 36 38 37 38 36 36 34 34 33 33 32 31 31 32 33 31 33
44 45 43 42 39 38 35 35 35 35 37 36 36 36 36 36 36 36 36 34 34 33 33 31 31 32 29 31 28 29 30 31
43 44 42 40 39 37 36 35 36 35 34 34 35 35 35 35 35 35 35 34 33 32 32 31 28 30 30 29 26 26 28 30
43 42 40 39 38 37 33 32 32 34 34 34 34 33 33 34 34 34 34 34 33 32 33 30 29 28 29 29 29 29 27 27
42 42 40 39 37 34 32 31 32 35 33 33 33 30 30 32 33 32 33 33 33 31 32 30 29 28 28 28 27 29 29 28
41 41 39 39 36 34 32 33 33 32 34 33 32 30 29 30 31 31 31 31 31 32 31 30 28 28 28 27 28 29 28 29
40 40 38 38 36 34 35 31 31 30 31 33 33 30 28 28 29 30 30 30 30 31 28 30 29 28 27 27 29 30 30 30
39 38 38 36 37 36 34 30 30 31 32 31 31 29 27 27 29 29 28 28 28 29 27 29 30 28 27 27 28 30 31 31

GFSFLT2_sfc_30mbdewp_174.txt.gz
Dewpoint
65 66 65 65 64 64 63 63 62 60 58 56 54 52 49 49 48 48 47 45 44 44 49 48 48 48 48 49 48 46 41 41
61 61 61 61 62 62 61 60 58 56 53 53 51 48 47 47 46 46 46 44 46 49 47 46 45 46 46 46 45 44 42 42
59 58 57 57 58 59 58 56 55 55 54 54 52 47 44 44 45 45 45 45 46 47 45 45 44 45 45 44 44 42 42 42
58 56 55 55 55 55 53 52 52 50 51 52 42 41 42 43 46 46 46 45 45 45 43 44 42 42 42 43 42 42 42 42
57 55 54 53 52 51 51 50 47 46 46 45 43 43 42 42 39 40 41 42 41 41 41 41 41 41 41 41 41 41 42 42
56 54 53 49 50 49 49 47 45 44 44 43 42 41 39 39 38 40 39 40 40 40 41 41 40 40 40 40 40 39 39 40
55 53 51 47 48 49 47 46 43 43 44 43 41 40 39 39 39 39 39 40 40 40 40 40 39 40 39 38 38 36 37 39
56 53 49 48 49 47 46 44 43 42 42 42 40 40 39 40 39 39 40 40 40 40 40 39 39 39 36 36 37 37 38 38
55 53 49 48 47 46 45 44 42 42 41 41 40 39 40 40 38 39 41 40 39 39 38 38 37 36 35 35 37 37 38 39
54 52 49 46 46 45 44 43 42 41 40 40 39 40 41 39 38 40 40 39 39 37 37 36 35 33 32 34 35 36 37 38
52 50 48 46 45 45 43 42 41 41 40 38 39 40 41 38 39 40 39 38 37 35 36 35 30 30 30 33 35 35 36 36
51 49 47 46 44 43 42 42 41 41 38 37 38 39 40 38 39 39 38 36 34 33 34 33 32 32 31 33 34 32 34 35
50 48 47 45 41 40 39 40 39 39 38 37 37 38 38 38 38 38 37 34 33 33 33 31 30 32 28 30 33 32 31 32
49 47 46 43 40 38 37 38 37 37 38 37 37 37 37 37 37 36 36 34 33 32 30 30 31 31 28 29 22 27 29 31
48 47 44 42 40 37 37 36 36 36 36 35 36 36 36 36 36 35 35 34 32 32 29 27 28 30 30 26 20 17 27 30
47 45 43 41 38 35 34 33 33 34 34 35 35 35 35 36 35 35 34 33 33 31 30 28 27 27 28 29 28 28 26 24
45 44 41 39 37 36 34 33 33 34 34 34 33 33 34 35 34 34 33 33 33 31 29 28 28 27 27 27 28 29 29 28
44 42 41 39 37 36 33 33 35 33 34 32 30 31 32 33 33 33 33 32 32 31 29 28 28 27 27 28 29 27 27 29
43 42 41 40 37 35 33 33 34 33 33 32 30 29 31 31 32 31 31 31 31 31 30 29 28 26 27 28 29 30 30 30
42 42 41 39 35 34 33 34 35 33 33 33 30 29 30 31 31 30 30 30 29 29 31 30 28 26 26 27 28 29 31 32

GFSFLT2_sfc_30mbdewp_177.txt.gz
Dewpoint
67 67 68 68 67 66 65 64 64 63 61 58 55 53 51 50 49 48 47 47 50 49 49 48 49 49 48 47 46 46 41 42
65 66 66 65 65 64 64 63 62 60 57 54 50 50 49 48 48 46 47 49 49 48 47 46 47 46 46 46 45 44 41 42
62 61 61 62 63 63 62 61 59 57 54 52 50 47 47 45 48 47 48 49 47 46 46 45 45 45 45 45 43 42 41 41
60 59 59 59 60 61 58 57 56 55 54 51 45 43 44 46 48 47 47 47 45 45 45 44 42 41 42 42 41 40 40 41
59 58 57 57 57 55 53 53 52 52 52 42 42 43 46 42 42 41 42 43 40 41 41 41 40 40 40 40 39 39 39 41
58 57 56 54 53 52 50 48 47 47 47 43 43 42 39 38 39 39 39 40 40 40 40 40 39 39 37 37 38 38 38 40
57 56 55 51 51 50 48 47 46 45 45 43 42 39 38 39 39 39 40 40 40 39 39 38 38 36 36 37 37 38 39 41
57 55 54 49 49 49 47 46 45 44 44 42 40 39 39 39 39 39 40 40 40 39 38 37 36 35 35 36 37 39 41 42
56 54 52 48 48 48 47 45 44 42 42 41 40 40 40 39 39 40 40 39 38 37 37 36 32 33 34 36 37 38 39 37
55 53 49 47 48 47 46 45 43 41 41 40 40 40 40 38 39 40 39 38 36 36 36 31 31 31 33 35 37 37 35 36
55 53 49 47 47 47 46 44 42 41 40 39 40 41 39 39 40 39 38 36 35 35 33 31 30 31 34 34 35 35 34 33
56 53 49 47 46 46 44 42 41 40 38 39 40 41 39 40 40 38 37 34 33 33 31 32 32 32 34 32 32 33 33 32
55 51 48 46 44 44 42 41 40 39 38 38 40 40 39 39 39 37 35 32 32 32 31 28 29 31 32 32 32 31 31 31
53 50 47 45 43 42 42 43 41 39 39 38 39 38 38 38 38 36 34 33 31 30 30 28 29 31 27 28 24 29 29 31
53 50 46 43 42 42 43 41 39 37 36 37 37 38 38 38 37 35 33 33 30 29 28 26 24 29 29 23 18 9 25 29
53 50 45 42 41 40 40 38 36 36 35 36 36 37 37 37 36 35 33 33 31 29 28 27 27 24 27 29 29 27 21 19
52 49 45 42 39 39 39 38 35 36 35 35 35 36 36 36 35 34 33 34 32 29 27 26 27 26 26 27 29 29 28 27
51 48 45 41 39 39 39 36 34 34 34 33 34 34 35 35 34 33 33 33 31 29 28 28 27 27 28 28 27 26 27 28
49 46 44 42 40 38 37 36 34 33 33 33 32 33 33 33 33 33 33 33 31 30 29 28 27 27 28 29 29 30 30 30
47 45 43 43 41 38 36 35 34 33 33 31 31 31 32 32 32 32 32 32 32 31 30 28 27 27 27 28 28 29 31 32

GFSFLT2_sfc_30mbdewp_180.txt.gz
Dewpoint
67 68 69 69 68 67 66 66 65 65 64 62 60 57 55 52 51 50 50 53 51 50 50 50 49 48 48 47 46 45 42 46
66 68 68 68 67 66 66 65 65 63 61 59 56 54 52 50 50 51 53 51 49 48 48 48 48 48 47 46 45 44 42 45
65 65 65 65 65 65 65 64 63 61 58 54 54 50 50 49 50 51 51 49 48 47 47 46 47 47 45 44 42 41 41 44
63 63 62 63 64 64 63 62 60 57 54 50 47 45 47 49 50 50 49 47 47 47 46 44 42 40 41 40 39 40 40 43
61 61 61 61 61 60 59 57 55 54 51 44 43 46 48 47 46 45 45 43 41 41 40 40 39 38 38 38 38 39 40 44
60 59 59 59 59 58 56 54 53 52 47 43 43 45 42 41 39 39 40 40 40 40 39 39 37 37 37 38 38 39 42 46
60 58 58 56 57 55 52 52 51 50 44 43 44 41 38 39 39 39 40 40 39 38 38 37 36 36 37 38 40 42 44 44
59 58 57 55 55 53 51 49 48 48 44 44 41 40 39 39 39 39 39 39 39 37 36 34 34 36 37 39 40 41 40 39
58 57 57 54 53 51 49 47 46 46 44 42 41 39 39 39 39 39 39 39 37 37 35 31 32 35 37 38 38 37 34 33
58 57 55 53 51 50 48 46 46 46 44 42 41 40 39 39 39 39 39 37 36 35 30 30 32 35 36 36 36 35 33 31
57 56 54 51 49 48 47 46 46 44 43 42 41 41 39 40 40 39 38 35 35 33 31 29 33 35 35 34 34 33 32 30
57 56 53 50 48 47 46 45 45 43 42 41 41 40 39 40 39 38 36 34 33 30 29 32 33 34 32 32 32 32 31 31
56 54 51 49 47 46 44 43 42 42 41 40 41 39 40 40 39 37 34 32 32 29 30 30 32 32 31 31 31 31 31 30
57 54 50 49 47 46 44 43 42 40 40 40 41 40 40 39 38 36 33 32 32 30 27 27 29 30 27 30 29 30 29 30
56 55 50 49 47 45 44 42 41 39 38 39 41 40 39 39 37 35 33 32 29 29 29 25 24 29 29 23 17 13 25 29
56 54 50 48 45 44 43 40 38 37 37 39 40 39 39 38 36 34 32 32 29 27 28 27 25 23 28 29 28 25 18 21
55 53 50 48 45 44 43 42 39 37 37 37 37 38 38 37 35 34 33 32 31 27 26 26 27 26 26 28 28 28 28 24
55 53 49 48 44 44 44 42 39 36 35 35 36 36 36 36 35 33 33 32 29 28 27 27 27 27 27 28 27 24 26 27
54 52 48 45 43 44 45 42 39 36 34 34 35 35 35 35 34 33 33 32 30 29 28 27 27 27 28 29 29 29 29 30
53 51 48 44 42 43 44 42 39 37 35 34 34 35 34 34 34 33 33 32 30 29 28 27 28 28 29 29 29 30 31 31